{"data":{"norad_id":62021,"intl_designator":"2024-213P","name":"STARLINK-32520","alt_names":[],"object_type":"PAYLOAD","status":"ACTIVE","operator":null,"country":"US","launch_date":"2024-11-18","launch_site_code":"AFWTR","launch_vehicle":null,"mission":null,"orbit_class":"UNKNOWN","rcs_meters":null,"size_class":null,"mass_kg":null,"dimensions":null,"purposes":["comms"],"wikipedia_slug":null,"has_3d_model":false,"image_url":null,"decayed_at":null,"tle_current":{"epoch":"2026-05-25T01:32:16.180224Z","epoch_age_seconds":65659,"freshness":"FRESH","line1":"1 62021U 24213P   26145.06407616  .00011790  00000+0  40947-3 0  9995","line2":"2 62021  53.1584 173.6869 0001222  82.8043 277.3096 15.30206180 84845","mean_motion":15.3020618,"eccentricity":0.0001222,"inclination_deg":53.1584,"raan_deg":173.6869,"arg_perigee_deg":82.8043,"mean_anomaly_deg":277.3096,"bstar":0.00040947,"rev_number":8484,"period_min":94.104965645871,"perigee_km":474.35913974737,"apogee_km":476.03409448339,"semimajor_km":6853.3336171154,"source":"CELESTRAK","updated_at":"2026-05-25T13:38:19.521541Z"}}}